Weather History for KLNL - August, 2013

Change the Weather History Date:

Saturday, August 24, 2013

  Actual Average (KEGV) Record (KEGV)
Temperature  
Mean Temperature 68 °F -  
Max Temperature 81 °F 75 °F 86 °F (2003)
Min Temperature 56 °F 57 °F 39 °F (2005)
Cooling Degree Days 4    
Growing Degree Days 18 (Base 50)    
Moisture  
Dew Point 57 °F    
Average Humidity 67    
Maximum Humidity 96    
Minimum Humidity 47    
Precipitation  
Precipitation 0.00 in - - ()
Sea Level Pressure  
Sea Level Pressure 30.17 in    
Wind  
Wind Speed 5 mph (South)    
Max Wind Speed 15 mph    
Max Gust Speed 24 mph    
Visibility 10 miles    
Events      
Averages and records for this station are not official NWS values.
T = Trace of Precipitation, MM = Missing Value Source: NWS Daily Summary

Daily Weather History Graph

Daily Weather History Graph

Search for Another Location

Airport or City:

Trip Planner

Search our weather history database for the weather conditions in past years. The results will help you decide how hot, cold, wet, or windy it might be!

Date:

Astronomy

Aug. 24, 2013 Rise Set
Actual Time 6:07 AM CDT 7:49 PM CDT
Civil Twilight 5:35 AM CDT 8:21 PM CDT
Nautical Twilight 4:57 AM CDT 8:59 PM CDT
Astronomical Twilight 4:15 AM CDT 9:41 PM CDT
Moon 9:25 PM CDT (8/24) 10:24 AM CDT (8/24)
Length of Visible Light 14h 45m
Length of Day
13h 42m
Waning Gibbous, 84% of the Moon is Illuminated
Aug 24
Waning Gibbous
Aug 28
Last Quarter
Sep 5
New
Sep 12
First Quarter
Sep 19
Full

Hourly Weather History & Observations

Time (CDT) Temp. Heat Index Dew Point Humidity Pressure Visibility Wind Dir Wind Speed Gust Speed Precip Events Conditions
12:15 AM 61.3 °F - 56.5 °F 84% 30.18 in 10.0 mi Calm Calm - N/A   Clear
12:35 AM 61.5 °F - 56.5 °F 83% 30.19 in 10.0 mi South 3.5 mph - N/A   Clear
12:55 AM 61.3 °F - 56.5 °F 84% 30.19 in 10.0 mi South 3.5 mph - N/A   Clear
1:15 AM 61.3 °F - 56.5 °F 84% 30.19 in 10.0 mi Calm Calm - N/A   Clear
1:35 AM 61.0 °F - 56.7 °F 86% 30.20 in 10.0 mi SSW 3.5 mph - N/A   Clear
1:55 AM 60.8 °F - 56.5 °F 86% 30.20 in 10.0 mi Calm Calm - N/A   Clear
2:15 AM 60.3 °F - 56.5 °F 87% 30.20 in 10.0 mi Calm Calm - N/A   Clear
2:35 AM 60.4 °F - 56.7 °F 87% 30.20 in 10.0 mi Calm Calm - N/A   Clear
2:55 AM 59.9 °F - 56.5 °F 88% 30.20 in 10.0 mi Calm Calm - N/A   Clear
3:15 AM 58.1 °F - 55.6 °F 91% 30.21 in 10.0 mi Calm Calm - N/A   Clear
3:35 AM 57.6 °F - 56.1 °F 95% 30.22 in 10.0 mi Calm Calm - N/A   Clear
3:55 AM 57.6 °F - 56.1 °F 95% 30.22 in 10.0 mi Calm Calm - N/A   Clear
4:15 AM 56.7 °F - 55.4 °F 96% 30.22 in 10.0 mi Calm Calm - N/A   Clear
4:35 AM 57.2 °F - 56.1 °F 96% 30.22 in 10.0 mi Calm Calm - N/A   Clear
4:55 AM 57.7 °F - 56.5 °F 96% 30.22 in 10.0 mi Calm Calm - N/A   Clear
5:15 AM 57.2 °F - 55.9 °F 96% 30.22 in 10.0 mi Calm Calm - N/A   Clear
5:35 AM 58.1 °F - 56.7 °F 95% 30.23 in 10.0 mi Calm Calm - N/A   Clear
5:55 AM 58.1 °F - 56.3 °F 94% 30.23 in 10.0 mi Calm Calm - N/A   Clear
6:15 AM 58.1 °F - 56.3 °F 94% 30.23 in 10.0 mi SSW 3.5 mph - N/A   Clear
6:35 AM 58.1 °F - 56.3 °F 94% 30.24 in 10.0 mi Calm Calm - N/A   Clear
6:55 AM 58.5 °F - 56.3 °F 93% 30.24 in 10.0 mi Calm Calm - N/A   Clear
7:15 AM 59.5 °F - 56.5 °F 90% 30.24 in 10.0 mi South 3.5 mph - N/A   Clear
7:35 AM 60.8 °F - 56.3 °F 85% 30.24 in 10.0 mi SSW 4.6 mph - N/A   Clear
7:55 AM 62.4 °F - 56.3 °F 80% 30.24 in 10.0 mi SSW 4.6 mph - N/A   Clear
8:15 AM 63.9 °F - 55.4 °F 74% 30.25 in 10.0 mi SSW 5.8 mph - N/A   Clear
8:35 AM 66.0 °F - 54.7 °F 67% 30.24 in 10.0 mi SSW 5.8 mph - N/A   Clear
8:55 AM 67.8 °F - 53.8 °F 61% 30.23 in 10.0 mi SSW 5.8 mph - N/A   Clear
9:15 AM 69.4 °F - 53.4 °F 57% 30.22 in 10.0 mi SSW 6.9 mph - N/A   Clear
9:35 AM 70.9 °F - 53.1 °F 53% 30.22 in 10.0 mi SSW 10.4 mph 16.1 mph N/A   Clear
9:55 AM 72.7 °F - 53.4 °F 51% 30.22 in 10.0 mi South 9.2 mph - N/A   Clear
10:15 AM 73.2 °F - 53.1 °F 49% 30.22 in 10.0 mi SSW 10.4 mph 18.4 mph N/A   Clear
10:35 AM 74.3 °F - 54.0 °F 49% 30.22 in 10.0 mi SSW 11.5 mph 19.6 mph N/A   Clear
10:55 AM 74.8 °F - 55.0 °F 50% 30.22 in 10.0 mi SSW 9.2 mph 18.4 mph N/A   Scattered Clouds
11:15 AM 75.9 °F - 56.1 °F 50% 30.22 in 10.0 mi SSW 12.7 mph 18.4 mph N/A   Scattered Clouds
11:35 AM 76.6 °F - 57.4 °F 51% 30.22 in 10.0 mi SSW 11.5 mph 20.7 mph N/A   Scattered Clouds
11:55 AM 77.9 °F - 58.1 °F 50% 30.20 in 10.0 mi South 15.0 mph 20.7 mph N/A   Scattered Clouds
12:15 PM 77.9 °F - 58.6 °F 51% 30.20 in 10.0 mi South 13.8 mph 18.4 mph N/A   Scattered Clouds
12:35 PM 77.7 °F - 59.2 °F 53% 30.20 in 10.0 mi SW 8.1 mph 17.3 mph N/A   Scattered Clouds
12:55 PM 78.8 °F - 58.8 °F 50% 30.20 in 10.0 mi SW 10.4 mph 23.0 mph N/A   Scattered Clouds
1:15 PM 78.6 °F - 59.2 °F 51% 30.19 in 10.0 mi South 9.2 mph 20.7 mph N/A   Overcast
1:35 PM 78.6 °F - 59.2 °F 51% 30.19 in 10.0 mi South 11.5 mph 18.4 mph N/A   Overcast
1:55 PM 80.2 °F 80.8 °F 59.2 °F 48% 30.18 in 10.0 mi SSW 10.4 mph 23.0 mph N/A   Mostly Cloudy
2:15 PM 80.2 °F 80.8 °F 59.2 °F 48% 30.18 in 10.0 mi SSW 8.1 mph 18.4 mph N/A   Clear
2:35 PM 80.4 °F 80.9 °F 58.6 °F 47% 30.17 in 10.0 mi South 11.5 mph 24.2 mph N/A   Scattered Clouds
2:55 PM 80.2 °F 80.8 °F 58.8 °F 48% 30.16 in 10.0 mi South 11.5 mph 20.7 mph N/A   Scattered Clouds
3:15 PM 79.7 °F - 59.2 °F 49% 30.16 in 10.0 mi SSW 10.4 mph 19.6 mph N/A   Mostly Cloudy
3:35 PM 80.6 °F 81.2 °F 59.9 °F 49% 30.15 in 10.0 mi South 8.1 mph 16.1 mph N/A   Mostly Cloudy
3:55 PM 81.0 °F 81.5 °F 59.5 °F 48% 30.15 in 10.0 mi South 9.2 mph 16.1 mph N/A   Mostly Cloudy
4:15 PM 80.4 °F 81.1 °F 59.7 °F 49% 30.14 in 10.0 mi South 10.4 mph - N/A   Mostly Cloudy
4:35 PM 80.6 °F 81.2 °F 59.7 °F 49% 30.14 in 10.0 mi South 10.4 mph 16.1 mph N/A   Mostly Cloudy
4:55 PM 79.5 °F - 58.6 °F 49% 30.14 in 10.0 mi South 11.5 mph 18.4 mph N/A   Mostly Cloudy
5:15 PM 77.9 °F - 58.8 °F 52% 30.13 in 10.0 mi SSE 8.1 mph - N/A   Mostly Cloudy
5:35 PM 78.8 °F - 58.6 °F 50% 30.13 in 10.0 mi South 11.5 mph - N/A   Mostly Cloudy
5:55 PM 78.6 °F - 58.5 °F 50% 30.13 in 10.0 mi South 10.4 mph 19.6 mph N/A   Mostly Cloudy
6:15 PM 77.9 °F - 58.1 °F 50% 30.12 in 10.0 mi South 9.2 mph 18.4 mph N/A   Scattered Clouds
6:35 PM 77.0 °F - 58.3 °F 52% 30.12 in 10.0 mi South 8.1 mph - N/A   Clear
6:55 PM 75.7 °F - 57.0 °F 52% 30.11 in 10.0 mi South 8.1 mph 16.1 mph N/A   Clear
7:15 PM 74.3 °F - 56.5 °F 54% 30.11 in 10.0 mi South 10.4 mph - N/A   Clear
7:35 PM 73.0 °F - 55.8 °F 55% 30.11 in 10.0 mi South 10.4 mph - N/A   Clear
7:55 PM 72.3 °F - 55.9 °F 56% 30.11 in 10.0 mi South 5.8 mph - N/A   Clear
8:15 PM 72.5 °F - 55.8 °F 56% 30.11 in 10.0 mi South 6.9 mph - N/A   Clear
8:35 PM 72.0 °F - 56.1 °F 57% 30.11 in 10.0 mi South 6.9 mph - N/A   Clear
8:55 PM 71.6 °F - 56.3 °F 58% 30.11 in 10.0 mi South 8.1 mph - N/A   Clear
9:15 PM 71.6 °F - 57.2 °F 60% 30.10 in 10.0 mi South 9.2 mph - N/A   Clear
9:35 PM 71.6 °F - 58.3 °F 63% 30.09 in 10.0 mi South 11.5 mph 17.3 mph N/A   Clear
9:55 PM 71.4 °F - 59.4 °F 66% 30.08 in 10.0 mi South 10.4 mph 19.6 mph N/A   Clear
10:15 PM 71.6 °F - 60.3 °F 67% 30.07 in 10.0 mi South 10.4 mph 20.7 mph N/A   Clear
10:35 PM 71.2 °F - 61.2 °F 70% 30.08 in 10.0 mi South 10.4 mph - N/A   Scattered Clouds
10:55 PM 71.4 °F - 61.9 °F 72% 30.08 in 10.0 mi South 8.1 mph 16.1 mph N/A   Mostly Cloudy
11:15 PM 71.4 °F - 62.6 °F 74% 30.09 in 10.0 mi South 10.4 mph 16.1 mph N/A   Mostly Cloudy
11:35 PM 71.8 °F - 63.7 °F 76% 30.09 in 10.0 mi South 8.1 mph 18.4 mph N/A   Scattered Clouds
11:55 PM 72.1 °F - 64.4 °F 77% 30.09 in 10.0 mi South 8.1 mph 18.4 mph N/A   Scattered Clouds